• en France
  • Liste des pays
  • À 7 jours
  • Température de l'eau
  • Carte satellitaire
  • Carte météo
  • Widgets météo
  • user-avatar
    Se connecter

    Météo par heure à Mihei

    Ce jour, 24 Mai, Jeudi

    Heure Température Précipitation Vent Pression Humidité
    00:00 +18°C° 0,6 mm 1 m/s 752 mmHg 91%
    01:00 +18°C° 0,6 mm 1 m/s 752 mmHg 92%
    02:00 +18°C° 0,6 mm 1 m/s 752 mmHg 93%
    03:00 +18°C° 0,6 mm 1 m/s 752 mmHg 94%
    04:00 +18°C° 0,6 mm 1 m/s 752 mmHg 94%
    05:00 +18°C° 0,6 mm 1 m/s 751 mmHg 94%
    06:00 +17°C° 0,6 mm 2 m/s 751 mmHg 94%
    07:00 +17°C° 0,7 mm 2 m/s 751 mmHg 92%
    08:00 +18°C° 0,7 mm 2 m/s 751 mmHg 90%
    09:00 +18°C° 0,7 mm 2 m/s 751 mmHg 89%
    10:00 +19°C° 0,5 mm 2 m/s 751 mmHg 86%
    11:00 +20°C° 0,5 mm 2 m/s 751 mmHg 83%
    12:00 +20°C° 0,5 mm 2 m/s 751 mmHg 80%
    13:00 +21°C° 0,1 mm 3 m/s 751 mmHg 78%
    14:00 +21°C° 0,1 mm 3 m/s 750 mmHg 75%
    15:00 +22°C° 0,1 mm 4 m/s 750 mmHg 72%
    16:00 +22°C° 0,1 mm 4 m/s 750 mmHg 74%
    17:00 +21°C° 0,1 mm 4 m/s 750 mmHg 76%
    18:00 +21°C° 0,1 mm 4 m/s 749 mmHg 78%
    19:00 +20°C° 0 mm 4 m/s 750 mmHg 81%
    20:00 +18°C° 0 mm 4 m/s 750 mmHg 84%
    21:00 +17°C° 0 mm 3 m/s 750 mmHg 87%
    22:00 +17°C° 0 mm 4 m/s 750 mmHg 86%
    23:00 +15°C° 0 mm 4 m/s 750 mmHg 85%

    Demain, 25 Mai, Vendredi

    Heure Température Précipitation Vent Pression Humidité
    00:00 +15°C° 0 mm 4 m/s 750 mmHg 85%
    01:00 +14°C° 0 mm 5 m/s 750 mmHg 85%
    02:00 +14°C° 0 mm 5 m/s 750 mmHg 84%
    03:00 +13°C° 0 mm 6 m/s 750 mmHg 84%
    04:00 +13°C° 0 mm 6 m/s 751 mmHg 83%
    05:00 +12°C° 0 mm 7 m/s 751 mmHg 82%
    06:00 +12°C° 0 mm 7 m/s 751 mmHg 81%
    07:00 +12°C° 0 mm 7 m/s 752 mmHg 74%
    08:00 +13°C° 0 mm 8 m/s 753 mmHg 67%
    09:00 +13°C° 0 mm 8 m/s 753 mmHg 61%
    10:00 +15°C° 0 mm 8 m/s 754 mmHg 58%
    11:00 +15°C° 0 mm 8 m/s 754 mmHg 54%
    12:00 +16°C° 0 mm 7 m/s 754 mmHg 51%
    13:00 +16°C° 0 mm 7 m/s 755 mmHg 51%
    14:00 +16°C° 0 mm 7 m/s 755 mmHg 50%
    15:00 +16°C° 0 mm 7 m/s 755 mmHg 50%
    16:00 +16°C° 0 mm 6 m/s 755 mmHg 53%
    17:00 +15°C° 0 mm 6 m/s 756 mmHg 56%
    18:00 +15°C° 0 mm 5 m/s 756 mmHg 59%
    19:00 +13°C° 0 mm 5 m/s 756 mmHg 60%
    20:00 +12°C° 0 mm 4 m/s 757 mmHg 61%
    21:00 +10°C° 0 mm 4 m/s 757 mmHg 62%
    22:00 +10°C° 0 mm 4 m/s 758 mmHg 63%
    23:00 +9°C° 0 mm 3 m/s 759 mmHg 64%

    Après-demain, 26 Mai, Samedi

    Heure Température Précipitation Vent Pression Humidité
    00:00 +8°C° 0 mm 3 m/s 759 mmHg 65%
    01:00 +7°C° 0 mm 3 m/s 760 mmHg 66%
    02:00 +7°C° 0 mm 3 m/s 760 mmHg 68%
    03:00 +5°C° 0 mm 3 m/s 760 mmHg 69%
    04:00 +7°C° 0 mm 3 m/s 761 mmHg 69%
    05:00 +7°C° 0 mm 3 m/s 761 mmHg 69%
    06:00 +8°C° 0 mm 3 m/s 762 mmHg 69%
    07:00 +9°C° 0 mm 3 m/s 762 mmHg 62%
    08:00 +11°C° 0 mm 4 m/s 763 mmHg 56%
    09:00 +13°C° 0 mm 4 m/s 763 mmHg 50%
    10:00 +14°C° 0 mm 4 m/s 763 mmHg 48%
    11:00 +15°C° 0 mm 4 m/s 763 mmHg 46%
    12:00 +15°C° 0 mm 4 m/s 763 mmHg 45%
    13:00 +17°C° 0 mm 4 m/s 763 mmHg 44%
    14:00 +18°C° 0 mm 3 m/s 763 mmHg 43%
    15:00 +18°C° 0 mm 3 m/s 763 mmHg 43%
    16:00 +18°C° 0 mm 2 m/s 762 mmHg 46%
    17:00 +18°C° 0 mm 2 m/s 762 mmHg 49%
    18:00 +19°C° 0 mm 1 m/s 762 mmHg 52%
    19:00 +16°C° 0 mm 1 m/s 762 mmHg 55%
    20:00 +14°C° 0 mm 1 m/s 762 mmHg 58%
    21:00 +12°C° 0 mm 1 m/s 762 mmHg 61%
    22:00 +12°C° 0 mm 1 m/s 762 mmHg 63%
    23:00 +10°C° 0 mm 2 m/s 763 mmHg 64%

    27 Mai, Dimanche

    Heure Température Précipitation Vent Pression Humidité
    00:00 +10°C° 0 mm 2 m/s 763 mmHg 65%
    01:00 +9°C° 0 mm 2 m/s 763 mmHg 67%
    02:00 +9°C° 0 mm 2 m/s 763 mmHg 68%
    03:00 +9°C° 0 mm 2 m/s 763 mmHg 70%
    04:00 +9°C° 0 mm 3 m/s 763 mmHg 71%
    05:00 +10°C° 0 mm 3 m/s 763 mmHg 73%
    06:00 +11°C° 0 mm 3 m/s 763 mmHg 74%
    07:00 +13°C° 0 mm 3 m/s 762 mmHg 71%
    08:00 +14°C° 0 mm 4 m/s 762 mmHg 68%
    09:00 +17°C° 0 mm 4 m/s 762 mmHg 65%
    10:00 +19°C° 0 mm 4 m/s 762 mmHg 62%
    11:00 +20°C° 0 mm 4 m/s 761 mmHg 59%
    12:00 +21°C° 0 mm 4 m/s 761 mmHg 56%
    13:00 +21°C° 0 mm 4 m/s 760 mmHg 56%
    14:00 +22°C° 0 mm 5 m/s 760 mmHg 55%
    15:00 +22°C° 0 mm 5 m/s 759 mmHg 55%
    16:00 +21°C° 0 mm 4 m/s 759 mmHg 59%
    17:00 +21°C° 0 mm 4 m/s 758 mmHg 63%
    18:00 +21°C° 0 mm 4 m/s 758 mmHg 66%
    19:00 +19°C° 0 mm 4 m/s 758 mmHg 71%
    20:00 +17°C° 0 mm 4 m/s 757 mmHg 75%
    21:00 +14°C° 0 mm 3 m/s 757 mmHg 79%
    22:00 +14°C° 0 mm 4 m/s 757 mmHg 79%
    23:00 +13°C° 0 mm 4 m/s 757 mmHg 79%

    28 Mai, Lundi

    Heure Température Précipitation Vent Pression Humidité
    00:00 +13°C° 0 mm 4 m/s 756 mmHg 79%
    01:00 +12°C° 0 mm 4 m/s 756 mmHg 79%
    02:00 +12°C° 0 mm 4 m/s 756 mmHg 80%
    03:00 +12°C° 0 mm 4 m/s 756 mmHg 80%
    04:00 +12°C° 0 mm 4 m/s 756 mmHg 81%
    05:00 +13°C° 0 mm 3 m/s 756 mmHg 81%
    06:00 +13°C° 0 mm 3 m/s 756 mmHg 81%
    07:00 +14°C° 0 mm 3 m/s 756 mmHg 78%
    08:00 +17°C° 0 mm 4 m/s 756 mmHg 75%
    09:00 +18°C° 0 mm 4 m/s 756 mmHg 72%
    10:00 +19°C° 0 mm 4 m/s 756 mmHg 66%
    11:00 +20°C° 0 mm 5 m/s 756 mmHg 59%
    12:00 +21°C° 0 mm 5 m/s 756 mmHg 52%
    13:00 +21°C° 0 mm 6 m/s 756 mmHg 50%
    14:00 +21°C° 0 mm 6 m/s 756 mmHg 47%
    15:00 +20°C° 0 mm 6 m/s 756 mmHg 44%
    16:00 +20°C° 0 mm 5 m/s 757 mmHg 48%
    17:00 +19°C° 0 mm 4 m/s 757 mmHg 53%
    18:00 +18°C° 0 mm 4 m/s 757 mmHg 57%
    19:00 +16°C° 0 mm 3 m/s 757 mmHg 59%
    20:00 +13°C° 0 mm 3 m/s 758 mmHg 61%
    21:00 +11°C° 0 mm 3 m/s 758 mmHg 64%
    22:00 +10°C° 0 mm 3 m/s 758 mmHg 64%
    23:00 +9°C° 0 mm 2 m/s 759 mmHg 65%

    29 Mai, Mardi

    Heure Température Précipitation Vent Pression Humidité
    00:00 +9°C° 0 mm 2 m/s 759 mmHg 65%
    01:00 +8°C° 0 mm 2 m/s 759 mmHg 65%
    02:00 +8°C° 0 mm 2 m/s 759 mmHg 65%
    03:00 +8°C° 0 mm 2 m/s 759 mmHg 65%
    04:00 +8°C° 0 mm 2 m/s 759 mmHg 66%
    05:00 +9°C° 0 mm 3 m/s 759 mmHg 67%
    06:00 +10°C° 0 mm 3 m/s 759 mmHg 68%
    07:00 +12°C° 0 mm 4 m/s 758 mmHg 64%
    08:00 +14°C° 0 mm 5 m/s 758 mmHg 60%
    09:00 +16°C° 0 mm 6 m/s 758 mmHg 56%
    10:00 +17°C° 0 mm 6 m/s 758 mmHg 54%
    11:00 +19°C° 0 mm 6 m/s 757 mmHg 52%
    12:00 +21°C° 0 mm 6 m/s 757 mmHg 50%
    13:00 +21°C° 0 mm 6 m/s 756 mmHg 50%
    14:00 +22°C° 0 mm 6 m/s 756 mmHg 51%
    15:00 +22°C° 0 mm 6 m/s 756 mmHg 51%
    16:00 +22°C° 0 mm 6 m/s 755 mmHg 55%
    17:00 +21°C° 0 mm 5 m/s 755 mmHg 59%
    18:00 +21°C° 0 mm 4 m/s 754 mmHg 64%
    19:00 +20°C° 0 mm 4 m/s 754 mmHg 67%
    20:00 +18°C° 0 mm 4 m/s 754 mmHg 71%
    21:00 +17°C° 0 mm 4 m/s 754 mmHg 74%
    22:00 +15°C° 0 mm 4 m/s 753 mmHg 75%
    23:00 +15°C° 0 mm 4 m/s 753 mmHg 75%
    Voir plus